User: anonymous   Login
Location: Robert Brownlee Observatory
(34.2308°N, 117.2089°W)
Time: 19:59:03
(UTC-07:00)
Language:

Cosmos 1943 - Orbit

View from above orbital plane
View from above orbital plane
View from above satellite
View from above satellite

Ground track
Ground track

The orbit data is extracted from the following two-line orbital elements,

1 19119U 88039A   16239.83838159  .00000239  00000-0  14758-3 0  9997
2 19119  71.0051 359.9052 0010559 154.5543 356.3309 14.15069230460456
Epoch (UTC): 26 August 2016 20:07:16
Eccentricity: 0.0010559
inclination: 71.0051°
perigee height: 834 km
apogee height: 850 km
right ascension of ascending node: 359.9052°
argument of perigee: 154.5543°
revolutions per day: 14.15069230
mean anomaly at epoch: 356.3309°
orbit number at epoch: 46045

The dashed part of the orbit path shows where the satellite is in the earth's shadow,  

DLR